Meteo Giornale » Osservazioni meteo Stati Uniti (USA) » Montgomery Orange

ore: 12:54 - Osservazioni Meteo Montgomery Orange
Lat. 41° 30' N Lon. 74° 15' W Alt. 111 metri s.l.m.

molto_nuvoloso America/New_York

25 °C

Molto Nuvoloso

Temp. 24 Ore

22 °C

26 °C

Sud/Sud-Est

29.6 Km/h

Dew point 19 °C

Umidità 69 %

Visibilità  10 Km

Il sole sorge alle ore 06:44

Il sole tramonta alle ore 18:53

Data e Ora Cielo e Fenomeni T °C DP °C Um. % Pres. hPa Vis. km Vento km/h
Oggi h: 12:54 molto_nuvoloso Molto Nuvoloso 25 19 69 1012 10 S/SE 29.6
Oggi h: 11:54 coperto Coperto 25 20 73 1012 10 S/SE 18.5
Oggi h: 11:25 molto_nuvoloso Molto Nuvoloso 25 20 73 1013 10 S 29.6
Oggi h: 10:54 molto_nuvoloso Molto Nuvoloso 24 21 83 1013 10 SE 16.7
Oggi h: 09:54 coperto_pioggia Pioggia Debole 24 19 73 1013 10 S/SE 16.7
Oggi h: 07:54 coperto Coperto 23 19 78 1013 10 S/SE 24
Oggi h: 06:54 coperto Coperto 22 19 83 1013 10 SE 11.1
Oggi h: 05:54 coperto Coperto 22 19 83 1013 10 S/SE 14.8
Oggi h: 05:06 coperto_pioggia Pioggia Debole 22 19 83 1013 10 S/SE 14.8
Oggi h: 04:54 coperto_pioggia Pioggia Debole 22 19 83 1013 10 SE 11.1
Oggi h: 04:10 coperto Coperto 22 19 83 1014 10 S 16.7
Oggi h: 03:54 coperto_pioggia Pioggia Debole 22 19 83 1014 10 S 13
Oggi h: 02:54 coperto Coperto 22 19 83 1015 10 S/SE 16.7
Oggi h: 02:33 molto_nuvoloso Molto Nuvoloso 22 19 83 1015 10 S/SE 13
Oggi h: 02:06 molto_nuvoloso Molto Nuvoloso 22 19 83 1015 10 S/SE 14.8
Oggi h: 01:54 molto_nuvoloso Molto Nuvoloso 22 19 83 1015 10 S/SE 13
Oggi h: 00:54 molto_nuvoloso Molto Nuvoloso 22 19 83 1015 10 S 11.1
Ieri h: 23:54 molto_nuvoloso Molto Nuvoloso 22 19 83 1015 10 S/SE 9.3
Ieri h: 23:28 coperto Coperto 22 19 83 1015 10 S/SE 11.1
Ieri h: 22:54 molto_nuvoloso Molto Nuvoloso 22 19 83 1015 10 S/SE 9.3
Ieri h: 21:54 molto_nuvoloso Molto Nuvoloso 23 19 78 1015 10 S 11.1
Ieri h: 20:54 coperto Coperto 23 19 78 1015 10 S/SE 20.3
Ieri h: 19:54 molto_nuvoloso Molto Nuvoloso 23 19 78 1015 10 S/SE 14.8
Ieri h: 18:54 molto_nuvoloso Molto Nuvoloso 23 18 73 1015 10 S/SE 13
Ieri h: 17:54 sereno Sereno 24 18 69 1015 10 S/SE 14.8
Ieri h: 16:54 sereno Sereno 24 18 69 1015 10 S/SE 13
Ieri h: 15:54 sereno Sereno 25 18 65 1015 10 S/SE 18.5
Ieri h: 14:54 poco_nuvoloso Poco Nuvoloso 26 18 61 1016 10 S 24
Ieri h: 13:54 poco_nuvoloso Poco Nuvoloso 26 18 61 1017 10 S/SE 24